Printer-friendly version

IAU Minor Planet Center

Minor Planet Center

MPEC 1999-Y35: 1999 CV118, 1999 CF119, 1999 CG119

The following Minor Planet Electronic Circular may be linked-to from your own Web pages, but must not otherwise be redistributed electronically.


Read MPEC 1999-Y34 Read MPEC 2000-A01


M.P.E.C. 1999-Y35                                Issued 1999 Dec. 31, 18:00 UT

     The Minor Planet Electronic Circulars contain information on unusual
         minor planets and routine data on comets.  They are published
   on behalf of Commission 20 of the International Astronomical Union by the
          Minor Planet Center, Smithsonian Astrophysical Observatory,
                          Cambridge, MA 02138, U.S.A.

             Prepared using the Tamkin Foundation Computer Network

             BMARSDEN@CFA.HARVARD.EDU or GWILLIAMS@CFA.HARVARD.EDU
          URL http://cfa-www.harvard.edu/iau/mpc.html  ISSN 1523-6714

                      1999 CV118, 1999 CF119, 1999 CG119

                           Revision to MPEC 1999-J41

Observations:
     J99CB8V 3C1999 12 29.62435 08 30 55.33 +19 01 22.4                      568
     J99CB8V 3C1999 12 29.64395 08 30 55.24 +19 01 22.6                      568
     J99CB8V 3C1999 12 30.61677 08 30 50.70 +19 01 37.3                      568
     J99CB9F 3C1999 12 29.61447 08 26 09.36 +19 09 03.1                      568
     J99CB9F 3C1999 12 29.63415 08 26 09.26 +19 09 03.4                      568
     J99CB9F 3C1999 12 30.60682 08 26 04.71 +19 09 13.3                      568
     J99CB9G 3C1999 12 29.61447 08 26 42.95 +19 20 55.1                      568
     J99CB9G 3C1999 12 29.63415 08 26 42.85 +19 20 55.3                      568
     J99CB9G 3C1999 12 30.60682 08 26 38.47 +19 21 06.8                      568

Observer details:
568 Mauna Kea.  Observers C. Veillet, J. McDonald.  3.6-m CFHT + CCD.

Orbital elements:
1999 CV118
Epoch 2000 Feb. 26.0 TT = JDT 2451600.5                 Williams
M  16.04237              (2000.0)            P               Q
n   0.00257270     Peri.  149.71331     -0.09480913     -0.99247578
a  52.7485147      Node   305.61962     +0.89316330     -0.05043431
e   0.2864980      Incl.    5.46929     +0.43962546     -0.11157154
P 383              H    7.4           G   0.15           U   6
Residuals in seconds of arc
J992A  568  0.2-  0.2+    J9948  568  0.2-  0.3-    J99CT  568  0.2-  0.2+
J992A  568  0.0   0.4+    J9949  568  0.1-  0.1-    J99CT  568  0.2-  0.1+
J992I  568  0.4-  0.3+    J9956  568  0.2-  0.2-    J99CU  568  0.2-  0.2+
J992I  568  0.2-  0.2+    J9956  568  0.5-  0.3-

1999 CF119
Epoch 2000 Feb. 26.0 TT = JDT 2451600.5                 Williams
M 354.76808              (2000.0)            P               Q
n   0.00110433     Peri.  204.81279     -0.82985048     -0.48187760
a  92.6980696      Node   303.43699     +0.55148866     -0.63160106
e   0.5879650      Incl.   19.70137     +0.08490250     -0.60735004
P 892              H    7.4           G   0.15           U   5
Residuals in seconds of arc
J992B  568  0.1-  0.1-    J9948  568  0.0   0.1+    J99CT  568  0.1+  0.2-
J992B  568  0.0   0.1-    J9949  568  0.2-  0.3+    J99CT  568  0.0   0.1-
J992H  568  0.2+  0.2-    J9956  568  0.0   0.1-    J99CU  568  0.1-  0.2+
J992H  568  0.1-  0.1-    J9956  568  0.3+  0.2+

1999 CG119
Epoch 2000 Feb. 26.0 TT = JDT 2451600.5                 Williams
M 318.05373              (2000.0)            P               Q
n   0.00265658     Peri.  257.66195     -0.89378171     +0.38081593
a  51.6321963      Node   304.26374     -0.21001168     -0.82212035
e   0.3458747      Incl.   16.65908     -0.39629452     -0.42319897
P 371              H    7.6           G   0.15           U   6
Residuals in seconds of arc
J992B  568  0.1+  0.2-    J992H  568  0.3-  0.3+    J99CT  568  0.1+  0.0
J992B  568  0.2+  0.3-    J9948  568  0.1+  0.1+    J99CT  568  0.1-  0.1-
J992H  568  0.1-  0.0     J9949  568  0.1+  0.1+    J99CU  568  0.0   0.0

Ephemerides:
1999 CV118               a,e,i = 52.75, 0.29, 5                  q = 37.636
Date    TT    R. A. (2000) Decl.     Delta      r     Elong.  Phase     V
1999 12 28    08 31.05   +19 01.0   37.883   38.742   150.4     0.7    23.4
2000 01 07    08 30.24   +19 03.6   37.815   38.745   160.8     0.5    23.3
2000 01 17    08 29.38   +19 06.4   37.776   38.748   171.2     0.2    23.3
2000 01 27    08 28.48   +19 09.2   37.768   38.752   178.4     0.0    23.2
2000 02 06    08 27.59   +19 12.1   37.790   38.755   168.0     0.3    23.3
2000 02 16    08 26.73   +19 14.8   37.843   38.759   157.7     0.6    23.3
2000 02 26    08 25.95   +19 17.2   37.924   38.762   147.4     0.8    23.4
2000 03 07    08 25.28   +19 19.2   38.031   38.766   137.3     1.0    23.4
2000 03 17    08 24.73   +19 20.8   38.161   38.769   127.1     1.2    23.4
2000 03 27    08 24.34   +19 21.9   38.308   38.773   117.1     1.3    23.4
2000 04 06    08 24.11   +19 22.4   38.469   38.776   107.2     1.4    23.5
2000 04 16    08 24.05   +19 22.3   38.638   38.780    97.4     1.5    23.5
2000 04 26    08 24.17   +19 21.6   38.812   38.784    87.6     1.5    23.5
2000 05 06    08 24.47   +19 20.3   38.984   38.787    78.0     1.5    23.5
2000 05 16    08 24.93   +19 18.4   39.150   38.791    68.5     1.4    23.5
2000 05 26    08 25.56   +19 16.0   39.306   38.794    59.0     1.3    23.5
2000 06 05    08 26.32   +19 13.1   39.448   38.798    49.6     1.1    23.5
2000 06 15    08 27.21   +19 09.8   39.571   38.801    40.3     1.0    23.5
2000 06 25    08 28.20   +19 06.0   39.673   38.805    31.0     0.8    23.5

1999 CF119               a,e,i = 92.70, 0.59, 20                 q = 38.195
Date    TT    R. A. (2000) Decl.     Delta      r     Elong.  Phase     V
1999 12 28    08 26.28   +19 08.8   38.663   39.531   151.5     0.7    23.4
2000 01 07    08 25.48   +19 10.5   38.589   39.525   161.9     0.4    23.4
2000 01 17    08 24.62   +19 12.4   38.545   39.520   172.3     0.2    23.4
2000 01 27    08 23.73   +19 14.4   38.531   39.514   177.3     0.1    23.3
2000 02 06    08 22.85   +19 16.3   38.548   39.509   166.9     0.3    23.4
2000 02 16    08 22.01   +19 18.1   38.595   39.504   156.6     0.6    23.4
2000 02 26    08 21.25   +19 19.6   38.670   39.498   146.4     0.8    23.5
2000 03 07    08 20.59   +19 20.8   38.771   39.493   136.2     1.0    23.5
2000 03 17    08 20.07   +19 21.6   38.894   39.488   126.1     1.2    23.5
2000 03 27    08 19.69   +19 21.8   39.034   39.482   116.1     1.3    23.5
2000 04 06    08 19.47   +19 21.5   39.187   39.477   106.1     1.4    23.5
2000 04 16    08 19.43   +19 20.7   39.348   39.472    96.3     1.4    23.6
2000 04 26    08 19.57   +19 19.3   39.513   39.466    86.6     1.5    23.6
2000 05 06    08 19.87   +19 17.3   39.676   39.461    77.0     1.4    23.6
2000 05 16    08 20.34   +19 14.8   39.833   39.456    67.4     1.4    23.6
2000 05 26    08 20.97   +19 11.8   39.978   39.450    58.0     1.2    23.6
2000 06 05    08 21.73   +19 08.3   40.109   39.445    48.6     1.1    23.6
2000 06 15    08 22.61   +19 04.4   40.222   39.440    39.2     0.9    23.5

1999 CG119               a,e,i = 51.63, 0.35, 17                 q = 33.774
Date    TT    R. A. (2000) Decl.     Delta      r     Elong.  Phase     V
1999 12 28    08 26.84   +19 20.6   41.598   42.465   151.5     0.6    24.0
2000 01 07    08 26.06   +19 22.6   41.521   42.456   161.8     0.4    23.9
2000 01 17    08 25.23   +19 24.8   41.473   42.447   172.2     0.2    23.9
2000 01 27    08 24.38   +19 27.1   41.455   42.439   177.4     0.1    23.9
2000 02 06    08 23.53   +19 29.3   41.469   42.430   167.0     0.3    23.9
2000 02 16    08 22.72   +19 31.3   41.512   42.422   156.7     0.5    23.9
2000 02 26    08 21.99   +19 33.1   41.584   42.413   146.5     0.7    24.0
2000 03 07    08 21.34   +19 34.6   41.681   42.404   136.3     0.9    24.0
2000 03 17    08 20.82   +19 35.7   41.801   42.396   126.2     1.1    24.0
2000 03 27    08 20.44   +19 36.3   41.937   42.387   116.2     1.2    24.0
2000 04 06    08 20.21   +19 36.3   42.087   42.378   106.3     1.3    24.0
2000 04 16    08 20.14   +19 35.9   42.246   42.370    96.4     1.3    24.0
2000 04 26    08 20.24   +19 34.9   42.407   42.361    86.7     1.4    24.1
2000 05 06    08 20.49   +19 33.4   42.567   42.353    77.1     1.3    24.1
2000 05 16    08 20.90   +19 31.4   42.721   42.344    67.5     1.3    24.1
2000 05 26    08 21.45   +19 28.9   42.863   42.335    58.0     1.2    24.1
2000 06 05    08 22.14   +19 26.0   42.991   42.327    48.6     1.0    24.1
2000 06 15    08 22.94   +19 22.6   43.100   42.318    39.2     0.9    24.0

G. V. Williams               (C) Copyright 1999 MPC           M.P.E.C. 1999-Y35

Read MPEC 1999-Y34 Read MPEC 2000-A01


Our Web policy. Index to the CBAT/MPC/ICQ pages.


Valid HTML 4.01!